Wind_Speed
21 20 20 20 20 21 24 25 26 26 26 26 25 25 24 24 24 26 26 24 23 28 33 36 38 40 39 38 37 37 35 34 32 29 27 23 20 18 17 17 14 9 6 7 9 9 10 11 11 11 11 12 12 13 14 15 16 17 17 18 18 19 20
21 21 20 21 21 20 21 24 25 25 26 27 27 26 25 24 24 25 26 24 24 30 36 37 38 39 39 38 38 37 36 35 32 31 29 25 21 19 19 19 17 12 9 8 10 11 11 11 11 11 11 12 13 13 13 15 16 16 17 18 18 19 19
21 21 21 22 22 20 20 21 22 22 24 28 29 27 26 25 26 25 25 27 30 33 36 37 38 39 39 38 37 36 35 35 34 33 31 26 22 20 19 20 19 15 12 10 10 11 11 10 11 11 11 11 12 13 14 16 17 17 17 18 18 18 19
21 21 22 23 23 22 21 21 21 20 22 26 28 28 27 27 28 28 29 33 36 36 35 36 37 38 38 38 37 35 34 33 33 32 29 25 22 21 19 18 19 17 13 11 10 10 11 10 10 11 10 11 12 13 15 17 18 18 18 18 18 19 20
20 20 21 21 22 23 22 22 22 21 22 24 26 27 29 30 31 31 31 35 38 37 35 35 37 38 38 37 37 36 33 32 33 31 28 25 22 20 19 17 17 17 15 12 10 10 10 10 10 10 11 11 12 14 15 16 17 18 18 19 19 19 20
20 20 21 21 22 23 23 23 23 23 23 23 24 27 31 32 31 31 31 33 36 36 35 35 37 40 39 37 37 38 35 32 33 33 30 27 23 20 19 18 16 16 15 14 12 10 10 10 11 11 11 12 13 14 14 14 15 16 17 18 18 19 18
23 23 22 22 23 23 24 25 24 24 24 24 25 28 31 31 31 32 32 32 33 34 35 36 38 39 38 38 38 39 37 33 33 36 33 30 27 22 19 17 16 15 15 14 12 12 11 11 11 11 12 12 12 14 14 14 13 14 14 15 16 17 17
25 25 24 24 25 24 24 26 26 24 23 24 26 28 29 31 32 32 33 33 32 32 34 35 36 36 36 38 39 39 38 35 35 37 33 28 28 26 20 18 17 15 15 14 12 12 12 11 11 12 12 12 12 13 14 13 12 13 13 14 16 17 18
25 26 28 28 27 25 24 25 24 23 22 23 26 28 29 31 32 32 33 34 32 31 32 34 35 35 35 36 37 37 39 38 37 38 34 29 29 27 21 18 18 16 15 14 13 13 12 11 11 12 11 11 12 12 12 11 12 13 14 15 18 19 18
24 26 29 29 26 24 24 25 25 25 26 27 28 29 29 31 32 33 34 34 33 32 32 32 33 34 35 36 36 36 38 38 35 37 37 35 34 30 23 20 18 16 15 14 13 14 13 10 11 12 12 11 12 13 13 12 12 14 15 17 18 18 17
24 27 28 26 24 24 25 27 27 28 28 28 28 30 31 32 33 34 35 35 35 35 34 32 32 32 33 35 36 35 35 32 30 30 32 34 36 33 30 26 21 17 16 15 15 14 12 11 11 11 12 12 12 13 12 12 12 14 17 16 14 13 12
24 26 26 23 22 24 26 27 28 28 28 27 28 30 32 34 35 35 36 36 35 35 36 34 32 32 33 34 34 34 32 29 27 26 26 29 32 31 30 30 26 22 19 17 15 12 12 13 12 11 12 11 11 10 11 12 14 15 16 16 16 16 17
25 24 22 22 22 24 27 26 27 27 27 28 29 30 31 34 36 32 30 35 36 34 36 37 34 32 32 32 31 30 31 30 28 26 25 25 26 25 25 27 26 24 22 18 15 13 13 13 11 10 9 7 6 8 11 14 16 16 16 18 18 19 21
24 22 21 22 23 25 28 27 28 28 27 28 28 29 30 32 34 29 25 32 36 34 35 37 36 34 32 31 28 26 29 30 28 26 25 24 22 21 21 23 23 23 22 19 16 14 13 12 11 10 8 7 9 11 14 15 15 14 15 18 19 22 25
21 20 21 23 23 26 28 29 31 29 27 26 25 27 28 27 30 28 26 31 34 34 35 36 37 36 33 32 30 27 29 30 29 26 25 23 22 20 20 21 22 22 22 20 18 16 15 14 13 12 11 12 12 11 12 13 13 15 16 18 21 25 27
20 20 21 23 24 26 27 29 32 28 25 23 21 23 25 24 26 26 25 27 30 32 33 34 36 35 33 33 31 27 28 30 30 28 24 22 22 21 20 21 22 22 22 21 20 18 15 13 13 12 10 9 8 9 11 12 14 16 16 16 18 20 22
20 20 21 23 24 26 26 27 29 26 21 20 19 20 21 21 23 22 22 24 27 29 29 31 35 34 32 32 31 28 27 29 30 29 27 24 23 22 21 22 23 22 19 17 16 14 12 11 11 11 12 12 12 13 14 14 13 13 12 11 12 13 15
21 21 22 24 27 28 26 24 25 23 19 17 18 20 19 21 22 21 22 24 25 26 27 29 32 33 31 31 30 28 27 28 29 30 30 27 24 22 20 19 21 22 17 14 13 13 13 14 14 15 16 17 18 20 20 18 17 16 12 11 10 10 12
21 22 22 24 26 26 23 21 20 19 16 15 18 19 19 24 24 21 22 23 22 21 23 24 25 28 30 31 29 27 26 27 30 31 32 29 23 18 17 17 20 21 18 15 15 15 15 16 16 17 18 20 21 23 23 22 22 20 16 12 12 12 10
20 21 22 22 21 19 18 17 16 15 14 15 18 19 21 25 25 21 20 22 22 19 18 19 19 22 27 28 27 26 26 27 29 30 31 29 23 18 17 18 18 18 16 15 15 15 15 15 16 17 19 20 20 20 20 20 20 20 18 14 13 12 9
19 20 19 16 14 13 13 12 13 14 13 13 17 19 22 26 27 25 22 20 20 17 15 16 17 19 23 25 25 26 27 27 27 27 29 30 26 21 19 18 16 15 15 15 15 14 14 15 15 15 15 16 16 16 16 16 16 18 19 18 16 14 11
16 15 14 11 10 10 10 10 10 11 11 12 15 18 22 26 28 29 26 20 17 14 14 17 19 19 22 24 24 25 26 26 25 25 27 28 24 18 17 16 16 16 15 15 13 12 11 12 12 12 12 12 13 12 11 12 13 15 17 19 21 20 18
11 11 10 9 8 7 6 6 7 8 9 10 12 16 22 26 27 30 30 26 21 17 15 18 19 20 22 24 24 23 24 25 25 25 24 22 19 17 17 17 17 16 15 12 11 10 8 7 8 9 10 10 10 9 10 11 12 12 14 17 21 23 24
9 9 8 8 7 6 4 3 4 6 7 8 9 13 20 26 26 28 30 29 27 23 20 19 19 21 24 25 23 23 23 24 26 25 23 20 19 20 20 18 16 16 14 11 9 8 6 5 7 8 8 7 7 8 10 11 11 11 11 13 17 19 22
9 9 8 7 7 5 3 2 2 4 5 7 7 9 17 25 26 25 27 28 28 27 26 23 22 23 25 25 24 23 23 23 24 24 22 22 23 22 21 18 16 15 13 9 7 6 5 5 6 6 5 5 6 7 8 10 11 11 11 12 15 17 19
8 8 7 7 6 4 2 2 2 3 5 6 6 6 13 22 25 24 25 26 25 25 25 23 23 24 24 24 23 22 21 22 24 25 25 25 24 22 19 17 16 14 11 7 6 6 6 5 4 3 3 4 5 6 8 10 12 13 13 13 14 17 19
7 6 6 6 5 4 3 3 3 4 4 6 7 6 10 21 25 23 23 22 20 20 21 21 23 23 22 22 22 23 25 27 29 29 27 24 22 19 17 16 14 12 10 8 8 8 6 4 2 1 2 3 5 6 9 11 12 13 14 15 14 14 16
8 7 6 5 5 4 4 4 5 6 6 7 9 7 10 19 24 22 22 22 20 19 19 20 22 23 23 26 28 29 29 29 28 26 24 22 19 17 15 14 12 11 10 10 9 7 5 3 1 1 3 4 5 7 9 11 12 12 13 14 12 10 12
9 8 7 6 6 6 5 5 7 7 8 10 11 10 11 16 22 24 24 24 23 22 22 22 24 25 27 30 33 32 29 27 25 22 20 19 17 15 14 13 12 11 11 10 8 7 5 3 2 3 4 5 6 7 9 11 11 11 12 12 9 8 11
8 8 7 6 8 9 7 6 7 7 8 11 13 13 12 15 23 27 26 25 27 27 25 23 22 23 26 31 32 29 24 23 23 21 18 16 15 14 14 13 13 13 12 10 8 7 5 4 3 3 4 5 6 7 9 11 11 11 11 9 8 9 11
8 9 7 6 8 10 8 5 4 4 8 12 14 13 13 15 24 28 27 29 32 29 24 20 17 17 23 28 28 25 22 22 22 21 19 17 15 14 14 14 13 13 11 9 8 7 5 4 3 4 4 6 7 8 9 10 10 11 10 8 7 8 11
11 10 8 6 5 8 8 5 4 5 10 14 15 15 15 19 26 29 28 32 34 26 20 19 18 16 20 22 20 20 23 24 22 21 20 19 17 15 15 15 14 13 11 9 8 7 5 4 3 3 4 5 7 8 8 9 9 10 10 8 7 8 10
11 10 9 6 2 6 7 5 6 9 12 14 16 16 18 22 28 30 29 32 32 23 17 17 18 17 21 22 19 20 24 23 22 22 21 20 18 17 17 16 14 12 11 10 8 7 5 4 2 2 3 5 7 7 7 9 9 9 8 8 8 9 10
12 10 8 6 2 5 6 6 8 11 13 15 17 18 20 25 29 28 27 29 30 24 19 17 16 16 20 22 21 22 24 22 22 23 21 19 18 18 18 17 14 12 11 10 8 7 5 4 2 2 2 4 6 7 7 7 8 8 7 7 7 9 10
13 12 9 7 5 7 8 7 9 12 14 16 18 20 23 25 23 20 20 23 27 27 25 23 20 18 19 22 24 24 25 24 24 23 22 20 19 19 19 17 15 13 12 10 8 7 5 3 2 1 2 4 5 6 6 7 8 8 8 8 8 9 11
11 11 9 8 8 9 8 7 9 12 14 16 19 22 23 21 15 13 14 16 20 25 26 26 25 23 22 24 25 25 26 26 25 24 22 21 21 21 20 18 16 14 13 10 8 7 5 4 2 1 2 3 4 6 7 8 9 10 10 9 9 10 10
Wind_Direction
278 277 275 272 268 271 276 276 274 269 260 248 238 235 235 232 226 222 221 221 218 218 220 222 221 217 214 213 209 206 205 203 201 201 199 196 194 197 200 199 204 215 218 201 190 189 194 197 202 213 223 236 248 254 256 255 255 257 257 260 263 266 268
279 278 277 276 270 270 274 274 271 267 260 251 242 236 234 232 227 222 220 217 217 222 224 222 220 217 214 211 208 205 203 201 200 200 199 196 192 196 199 196 198 204 211 210 200 200 209 209 211 221 227 235 246 252 256 259 260 260 260 262 265 267 269
277 277 276 275 272 270 270 267 263 258 254 251 245 236 232 230 224 222 220 218 221 225 224 220 218 216 212 208 206 203 202 202 201 201 201 196 192 195 197 196 196 199 204 209 205 202 208 215 220 228 235 242 249 253 260 266 267 266 266 266 266 268 270
275 275 274 273 271 271 269 265 260 252 246 248 247 238 232 230 228 227 225 225 227 226 223 219 216 214 210 205 202 201 202 201 201 201 197 193 191 194 195 194 196 200 202 204 208 206 208 216 226 234 244 252 257 261 266 271 273 274 274 273 272 271 273
276 275 274 271 271 271 268 264 260 254 248 248 247 241 237 235 234 232 228 228 230 227 222 217 214 212 209 205 202 202 201 199 199 198 195 191 192 193 192 190 192 198 201 204 210 211 210 215 225 236 243 247 254 262 267 269 271 275 277 278 277 275 277
280 277 274 272 271 270 266 263 261 256 252 250 246 244 244 242 239 235 230 228 229 227 221 216 213 211 208 205 204 203 200 198 198 198 197 194 191 188 187 188 190 194 199 205 212 215 215 218 224 231 237 240 245 253 260 263 267 271 273 275 276 276 276
283 279 275 272 270 270 267 265 262 256 252 251 249 248 247 244 238 235 233 229 227 224 220 216 212 210 207 206 207 205 202 200 199 200 201 199 192 186 182 184 187 190 196 202 208 217 221 223 227 231 237 240 242 247 253 258 263 268 270 270 271 275 277
281 278 276 272 271 273 270 267 263 254 249 248 250 250 247 242 236 232 230 228 224 221 218 214 212 210 208 208 209 209 206 204 202 201 200 199 196 190 181 181 184 187 194 200 205 214 219 222 226 230 235 238 239 245 249 250 256 266 273 275 275 277 278
274 275 275 272 274 274 270 267 261 253 249 248 249 251 246 240 234 228 225 224 220 217 214 211 210 210 209 208 209 210 210 209 207 203 199 196 197 192 181 179 184 185 190 197 205 213 214 217 224 227 232 234 233 243 253 257 263 270 276 280 281 279 277
270 272 271 271 274 272 268 266 259 256 259 254 251 251 245 237 231 225 221 217 213 211 209 207 207 208 208 208 208 209 210 209 207 205 203 202 201 195 184 179 183 187 191 195 204 210 208 212 224 227 229 235 241 250 258 262 269 276 281 285 285 281 278
272 272 271 271 273 269 266 265 258 257 261 256 252 250 242 233 227 222 217 213 208 206 204 203 203 204 205 206 206 207 208 206 203 202 204 206 207 204 199 192 185 182 188 196 203 206 207 216 226 229 233 241 248 253 255 258 269 279 284 286 285 284 284
273 274 275 274 270 266 266 265 261 259 258 255 253 250 242 232 224 218 213 210 206 202 200 198 198 200 202 203 202 203 204 202 201 198 197 204 210 211 210 208 202 194 190 194 200 203 208 217 225 232 236 237 241 247 256 266 273 277 279 280 279 280 284
273 274 275 272 266 265 269 267 264 260 256 255 254 250 244 232 220 214 209 206 203 199 196 195 192 193 198 199 198 199 201 200 199 196 195 200 205 206 209 212 211 207 200 196 198 205 216 223 224 224 220 212 224 250 264 271 273 273 273 273 274 277 281
277 276 272 268 265 270 273 270 268 265 259 259 257 251 246 231 214 208 205 202 201 196 193 194 192 191 193 193 192 194 198 198 195 193 193 194 195 196 199 204 208 208 207 207 208 213 220 218 210 209 224 246 259 262 265 268 269 270 271 272 274 278 279
278 274 268 267 267 270 272 272 273 270 263 262 258 251 245 225 205 203 203 200 200 196 194 195 194 193 192 190 190 192 195 195 191 189 189 188 189 191 193 199 204 205 207 209 210 212 214 217 225 240 261 273 270 260 253 252 257 265 272 278 280 279 277
274 270 267 267 268 270 271 272 273 271 264 260 256 250 240 215 195 196 198 196 196 195 195 196 195 194 193 191 190 189 190 191 188 184 183 183 186 188 188 195 202 203 205 208 210 214 222 234 248 256 259 256 244 239 245 254 264 269 273 277 280 278 275
272 270 269 270 273 273 270 270 272 271 265 257 248 243 228 199 184 186 188 190 192 192 193 196 197 197 194 192 191 189 188 188 185 183 183 181 182 182 183 191 198 200 204 207 210 219 230 238 242 239 236 235 237 250 266 274 274 273 273 272 273 275 275
271 271 270 271 275 275 271 269 271 271 266 252 240 235 213 185 177 179 181 184 188 189 191 196 199 198 195 193 193 191 188 186 183 184 185 183 179 178 181 189 195 198 202 207 211 219 227 233 239 242 246 251 256 266 275 276 271 271 271 267 264 271 282
273 273 271 270 272 273 268 266 268 267 261 244 233 226 201 180 176 174 174 176 177 181 188 191 192 195 197 198 195 191 188 185 184 187 188 184 179 180 186 192 197 202 209 214 219 225 232 238 245 251 256 262 267 271 275 275 273 270 264 259 261 268 283
274 274 276 276 274 270 264 264 265 261 253 237 229 217 191 178 176 169 166 170 171 171 175 177 180 188 196 196 190 188 188 185 186 190 189 185 185 187 191 196 201 207 214 218 223 231 239 244 250 257 262 267 270 273 275 274 273 269 259 252 254 259 261
275 280 284 281 276 271 267 266 262 257 249 234 225 210 186 178 177 171 164 165 167 168 165 167 174 183 188 187 184 187 188 182 183 190 190 189 192 192 189 192 197 200 207 216 222 230 239 248 257 265 270 273 273 275 275 273 272 271 263 253 249 251 249
277 285 289 282 276 274 273 267 254 248 243 230 221 205 186 179 178 174 169 162 160 164 164 168 175 180 183 184 182 185 186 179 177 185 189 188 189 185 178 183 190 192 199 208 214 224 237 251 264 272 274 275 275 275 276 276 275 273 267 259 255 253 247
282 285 284 279 278 275 270 264 243 230 231 227 219 200 183 178 178 177 175 171 166 167 168 171 175 176 177 179 177 178 182 177 172 177 181 179 176 173 174 183 190 191 193 200 209 223 236 246 261 269 269 274 283 290 294 295 291 284 277 270 267 262 258
293 294 287 280 284 280 263 255 227 210 214 218 216 198 180 175 176 178 180 179 176 175 174 173 173 172 172 173 171 172 176 175 172 174 175 170 168 173 179 183 185 186 190 200 212 220 223 230 248 260 268 281 296 303 303 304 304 300 292 284 281 277 273
296 300 296 285 286 286 270 247 204 189 198 203 208 198 178 172 173 177 180 180 179 180 181 179 173 168 168 167 166 169 173 172 169 169 168 166 169 175 178 180 183 188 196 203 206 203 203 221 241 256 275 291 299 306 311 317 322 322 320 313 306 301 294
297 295 294 287 283 279 259 240 203 181 185 183 185 190 174 168 170 176 179 181 183 183 182 176 166 163 164 165 165 167 165 157 153 155 158 163 170 175 178 182 188 194 198 196 192 195 200 211 233 258 290 300 306 321 330 335 334 331 332 332 320 309 305
300 288 283 282 281 261 226 226 208 186 178 173 172 174 165 163 165 169 171 172 172 170 167 163 161 162 161 156 154 153 147 143 145 151 156 161 168 173 179 187 196 200 196 189 184 187 188 191 212 280 332 331 335 343 344 343 342 338 337 337 325 307 303
309 301 285 274 270 251 224 222 213 195 185 178 171 165 160 158 158 159 160 159 154 152 154 156 154 149 141 137 138 139 139 141 146 151 156 161 166 174 181 190 196 194 188 182 176 169 163 155 136 15 2 1 1 357 350 350 352 345 338 337 331 311 303
312 312 298 266 249 241 225 219 220 209 197 188 179 170 160 156 157 160 161 158 153 148 144 140 135 131 129 132 136 138 137 140 144 147 154 161 168 176 182 182 179 177 176 174 164 149 139 124 83 38 17 14 9 360 354 357 359 352 341 338 328 301 298
320 324 316 275 248 246 241 237 244 232 205 192 186 176 162 158 165 166 159 154 153 147 137 131 128 130 134 138 140 140 140 143 147 148 151 159 168 174 176 172 171 171 170 163 151 139 132 118 80 46 29 18 7 1 2 1 358 354 348 339 319 304 308
330 333 326 298 265 255 247 239 251 232 191 183 183 175 162 160 165 162 155 154 153 145 135 134 132 133 142 146 147 148 150 152 154 154 157 162 166 170 170 169 170 169 163 153 146 139 128 110 81 48 29 18 7 5 6 0 356 355 351 333 311 307 313
335 334 331 325 276 248 235 207 187 186 178 177 179 172 162 159 159 155 153 157 155 143 135 142 141 139 150 154 152 155 159 160 161 164 167 168 167 168 170 171 171 166 158 152 149 141 123 104 81 47 26 17 12 9 4 357 355 355 349 332 315 313 313
346 338 335 344 293 224 218 188 166 170 171 171 172 169 163 159 157 153 153 156 153 143 138 146 147 150 159 161 159 162 164 165 168 171 172 171 169 170 172 172 168 164 159 155 150 139 123 108 88 51 27 16 14 11 2 356 353 347 339 330 325 323 320
359 0 355 4 69 169 182 171 158 163 168 168 168 167 161 155 152 150 152 156 154 149 147 150 151 155 162 166 166 167 167 169 173 175 174 172 170 171 172 170 167 166 165 159 149 138 126 115 100 63 39 26 17 10 358 350 346 339 331 330 330 328 324
355 9 15 25 82 135 151 153 152 158 163 164 165 163 157 148 143 143 146 152 156 156 157 160 161 161 165 170 171 170 173 175 176 176 175 172 171 172 174 172 169 168 167 159 148 142 135 126 125 86 49 38 25 17 6 351 345 342 338 335 331 328 326
348 10 33 53 86 118 131 137 148 155 158 160 164 163 154 144 135 130 133 141 152 159 162 166 167 167 170 174 173 174 177 178 176 175 174 173 173 175 175 175 173 169 164 158 151 150 149 142 143 112 56 48 27 16 9 357 351 350 348 343 336 331 327
Height
676 676 676 675 675 674 673 673 673 673 674 674 674 673 673 673 673 673 673 676 677 678 681 683 685 687 689 691 694 698 701 704 707 709 712 716 719 722 725 727 729 730 730 731 733 735 736 737 739 739 741 742 743 744 744 744 743 742 742 740 739 737 736
673 672 671 671 670 669 669 668 668 669 669 669 669 669 669 669 669 669 669 671 673 673 676 679 682 684 685 688 691 694 696 700 703 706 708 711 715 718 721 723 725 727 728 729 730 732 734 735 736 736 738 739 740 740 741 741 740 739 738 737 735 734 732
669 669 668 667 666 665 665 665 664 664 664 665 665 665 665 665 665 665 665 666 667 669 672 675 678 680 682 685 688 690 693 696 699 702 704 707 711 714 717 719 721 724 725 726 728 729 731 732 732 733 734 735 736 737 737 737 736 735 734 732 731 730 728
666 666 664 663 663 662 662 661 661 661 661 660 661 661 661 661 661 661 661 662 663 665 668 672 674 676 678 681 684 686 689 692 695 698 701 704 707 710 713 716 718 720 722 724 725 726 728 729 730 731 731 732 732 733 733 732 731 730 729 728 727 726 724
663 662 661 660 659 659 658 658 657 657 657 656 657 657 657 657 657 657 657 658 659 661 664 667 670 671 674 678 681 682 685 688 691 694 698 701 704 707 710 712 715 717 719 721 722 724 726 727 728 729 730 731 731 730 730 729 727 726 725 724 723 722 721
659 659 658 657 656 655 655 654 654 653 653 653 653 652 652 653 653 654 654 654 655 657 661 663 665 666 669 673 676 678 681 684 687 691 695 698 700 703 706 709 711 714 716 718 720 722 724 725 726 727 728 729 729 729 728 726 725 724 723 722 721 720 719
656 655 654 653 653 652 651 650 650 649 649 648 648 648 648 648 649 650 650 650 651 653 656 659 660 662 665 668 671 674 677 681 684 688 691 695 697 700 703 705 708 711 713 715 717 719 721 723 724 725 725 726 727 727 726 724 722 721 720 720 719 718 717
652 651 650 649 648 647 647 646 645 645 644 644 644 644 644 644 644 645 645 647 648 649 651 654 657 659 661 663 667 671 674 678 681 684 689 692 694 696 699 701 704 707 710 712 715 717 718 720 721 722 722 723 724 723 722 721 719 718 717 717 716 715 715
648 647 646 645 644 643 642 642 641 640 640 640 639 639 639 639 639 640 641 642 644 646 648 650 653 655 657 660 664 668 672 674 677 680 684 688 691 694 696 697 700 703 706 709 711 713 715 716 717 718 718 719 719 720 719 718 717 715 714 714 713 712 712
644 643 642 640 640 639 638 637 636 635 635 635 635 635 635 634 635 635 636 637 640 642 644 646 648 651 654 657 661 665 669 672 674 677 680 683 686 690 692 693 696 699 701 704 708 710 711 712 713 714 715 715 716 716 717 716 715 713 711 711 709 707 708
639 638 637 636 636 634 633 632 631 630 630 630 630 630 629 629 629 630 631 633 634 636 639 642 645 648 651 654 658 662 666 670 672 675 678 681 684 686 688 689 692 695 697 701 704 706 707 709 709 710 712 712 713 714 714 714 713 711 709 708 706 704 704
635 634 633 632 631 630 628 627 626 626 625 625 624 624 624 623 623 625 626 628 629 631 634 638 641 645 648 651 655 659 664 667 670 673 676 678 682 684 686 686 688 691 694 697 700 702 704 705 706 708 709 710 711 712 712 712 710 709 707 706 705 702 701
630 629 628 628 626 624 623 621 621 621 620 619 619 619 618 617 617 619 621 623 625 627 630 634 638 641 645 649 653 657 660 664 668 671 673 676 679 682 684 685 687 689 691 694 696 698 701 702 703 705 706 707 709 710 710 709 707 706 705 704 703 700 699
626 625 624 623 621 619 618 616 616 615 614 614 613 613 613 612 613 616 618 619 621 624 627 631 634 638 642 646 650 654 657 661 665 668 671 674 677 679 681 683 686 688 690 691 694 696 698 699 701 702 703 705 706 707 707 706 704 703 703 701 700 699 697
622 621 619 618 617 615 613 611 611 610 609 609 608 608 609 608 610 613 615 617 619 622 625 629 632 635 639 642 646 649 654 658 662 665 668 671 674 676 678 680 683 685 687 689 691 693 695 697 698 700 701 702 703 703 703 703 702 701 700 700 698 696 694
618 616 615 613 612 611 609 607 606 605 605 604 604 604 605 605 607 611 613 616 618 621 624 627 630 634 636 639 642 646 651 655 659 663 666 669 671 674 676 678 680 683 685 686 688 690 693 695 696 697 698 699 699 700 700 700 699 699 699 699 696 692 690
614 612 611 609 608 606 604 602 601 601 601 600 600 601 602 603 605 609 611 614 617 620 623 626 628 632 634 637 640 644 649 653 656 660 663 666 669 671 673 676 678 681 683 685 687 689 691 692 693 694 694 695 697 697 697 697 697 696 697 697 694 690 687
610 608 606 605 603 602 600 598 597 597 597 597 597 599 599 600 603 607 610 613 616 618 621 624 627 630 633 635 638 642 647 651 654 657 660 663 666 669 671 673 676 678 680 682 685 687 688 689 690 690 691 693 694 694 693 694 693 693 694 694 691 688 685
606 603 602 600 598 597 596 595 594 594 594 594 595 596 597 598 601 605 608 611 615 618 621 623 626 629 631 633 636 641 646 649 651 654 657 661 664 667 669 671 673 675 678 680 683 685 686 687 688 688 689 690 690 690 689 689 689 689 690 690 688 687 686
602 599 597 596 595 594 593 592 591 591 591 591 592 594 595 596 599 602 606 610 613 617 620 623 626 628 629 632 636 640 644 647 649 652 655 659 662 664 666 668 671 674 677 679 682 684 684 685 685 685 686 686 686 686 685 685 685 685 685 686 685 685 685
598 596 594 593 592 591 590 590 589 589 589 589 590 592 593 595 597 601 605 609 613 616 619 621 624 627 629 631 635 638 642 645 647 651 654 657 660 661 664 666 670 673 677 679 681 682 683 683 683 683 683 683 683 683 683 682 682 681 682 683 682 682 682
595 594 592 591 590 589 589 588 588 587 587 588 589 590 591 593 596 599 603 608 612 615 617 620 622 625 628 631 634 637 640 643 646 650 653 656 658 660 663 666 670 673 676 678 680 681 681 680 680 680 680 681 681 681 680 679 679 679 679 679 678 678 677
593 592 591 589 588 587 587 587 587 586 587 587 588 589 591 592 595 599 602 606 610 613 616 619 621 624 627 631 634 637 640 643 646 649 652 654 657 660 663 667 670 673 675 677 678 679 678 678 678 678 679 679 679 678 677 677 677 677 676 675 674 673 672
591 590 589 587 586 586 586 586 586 586 586 587 587 589 590 592 595 598 601 604 608 611 614 617 620 624 627 630 633 636 639 642 644 647 650 653 657 660 663 667 669 672 674 675 676 676 675 676 676 677 677 677 676 676 675 675 675 674 673 672 671 669 668
590 589 588 586 585 585 585 585 585 585 586 587 587 589 590 592 595 598 601 604 607 610 613 616 620 623 627 630 633 636 639 641 643 646 650 653 656 660 663 666 668 670 672 673 673 673 673 674 675 675 675 674 674 675 674 673 673 672 671 669 668 666 664
590 589 587 586 585 584 584 584 584 585 586 587 588 589 590 592 595 597 600 603 606 609 613 616 619 623 626 629 632 635 638 640 643 646 650 653 656 659 662 665 667 669 670 670 670 671 672 673 673 673 673 673 673 673 673 672 671 670 669 668 667 664 661
589 588 587 585 584 584 584 584 584 585 586 587 588 589 591 593 595 598 601 604 607 610 614 617 620 623 626 629 631 634 637 640 642 646 649 653 657 659 662 664 665 667 667 668 669 670 671 671 672 672 672 673 672 672 672 671 670 669 668 667 666 664 660
588 587 586 584 584 583 583 583 584 584 585 586 587 588 591 593 595 598 601 604 607 611 614 617 620 623 625 628 630 634 638 641 644 647 651 654 656 659 661 663 664 665 666 667 668 669 669 670 671 671 671 671 671 671 671 670 669 668 667 666 665 663 659
588 586 585 584 583 582 582 582 582 583 584 585 586 588 590 592 595 597 600 603 607 610 614 617 620 622 625 628 632 636 640 643 646 649 651 654 656 658 660 661 663 664 665 666 667 667 668 669 670 670 671 671 671 671 670 669 669 668 667 666 664 663 659
588 586 585 583 582 580 580 581 581 582 583 585 587 588 590 593 595 597 600 604 607 610 614 618 621 624 627 630 633 636 640 643 646 648 651 654 656 658 659 660 662 663 664 665 666 667 668 669 669 670 670 670 670 670 670 669 668 668 667 665 663 661 658
586 585 584 583 581 580 580 581 581 582 583 585 587 589 591 593 596 598 600 604 607 611 615 619 622 625 628 631 633 636 639 642 645 648 650 653 655 657 658 659 661 662 663 664 665 666 667 668 668 669 670 670 670 670 669 669 668 667 666 664 663 660 657
585 583 582 582 581 580 580 581 582 582 583 585 587 589 591 594 596 599 601 604 607 611 616 619 622 625 629 631 633 636 638 641 644 647 649 652 654 655 657 658 660 661 662 664 665 666 667 667 668 669 669 669 669 669 669 669 668 666 665 663 661 659 657
585 583 582 581 580 580 580 581 582 583 584 586 588 590 592 595 597 600 602 605 609 612 616 620 623 625 628 631 633 635 638 641 643 646 648 651 652 654 656 658 659 661 662 663 665 665 666 667 667 668 669 669 669 669 669 668 667 666 665 663 660 658 656
585 583 582 581 580 581 581 582 583 584 585 587 589 591 593 596 599 602 604 606 609 612 616 620 623 625 628 630 633 635 638 641 643 646 648 650 652 654 655 657 659 661 662 663 664 664 665 666 667 668 669 669 669 669 668 668 667 666 664 662 660 657 655
586 584 583 582 581 582 583 583 584 585 586 588 590 592 594 597 600 604 606 608 610 613 616 619 622 625 628 630 632 635 638 640 643 645 647 649 651 653 655 657 659 660 661 662 663 664 665 666 668 668 669 669 668 668 668 667 667 666 664 662 660 657 655
588 585 584 584 583 584 585 585 586 587 588 589 591 593 595 597 600 603 607 610 612 614 617 619 622 625 628 630 633 635 637 640 642 644 646 648 650 652 654 656 658 659 660 661 662 664 665 666 668 668 668 668 668 668 667 667 666 665 663 662 660 657 655